Regional Weather Roundup
Issued by NWS

Home | Current Version | Previous Version | Graphics & Text | Print | Product List | Glossary On
Versions: 1 2 3 4 5 6 7 8 9 10 11 12 13 14 15 16 17 18 19 20 21 22 23 24 25 26 27 28 29 30 31 32 33 34 35 36 37 38 39 40 41 42 43 44 45 46 47 48 49 50
000
ASUS43 KMKX 290921
RWRWI

WISCONSIN REGIONAL WEATHER ROUNDUP
NATIONAL WEATHER SERVICE MILWAUKEE/SULLIVAN WI
400 AM CDT WED MAR 29 2017

NOTE: "FAIR" INDICATES FEW OR NO CLOUDS BELOW 12,000 FEET WITH NO
SIGNIFICANT WEATHER AND/OR OBSTRUCTIONS TO VISIBILITY.

WIZ001-002-006>008-014>016-023>028-291000-
NORTHWEST WISCONSIN

CITY           SKY/WX    TMP DP  RH WIND       PRES   REMARKS
SUPERIOR ARPT  PTCLDY    35  30  85 NE9G18    30.30S WCI  27
ASHLAND        CLEAR     29  27  92 N8        30.30R WCI  21
HAYWARD        CLEAR     29  26  89 NE7       30.25R WCI  22
SIREN          PTCLDY    34  28  77 CALM      30.23S
CUMBERLAND     CLOUDY    32  27  80 NE3       30.22F
RICE LAKE      CLOUDY    31  29  94 CALM      30.24S
CHETEK         CLOUDY    30  28  93 CALM      30.23S
LADYSMITH      CLOUDY    33  28  79 CALM      30.26R
EAU CLAIRE     CLOUDY    36  30  79 NE6       30.22R WCI  31
MENOMONIE      CLOUDY    35  31  85 CALM      30.22S
NEW RICHMOND   CLOUDY    39  28  63 CALM      30.21S
OSCEOLA        CLOUDY    33  28  84 CALM      30.23S
$$

WIZ003>005-009-010-017-018-291000-
NORTH CENTRAL WISCONSIN

CITY           SKY/WX    TMP DP  RH WIND       PRES   REMARKS
MANITOWISH WTR CLEAR     27  27  99 CALM      30.25R
ARBOR VITAE    CLEAR     32  28  86 CALM      30.25R
WOODRUFF       CLEAR     32  28  86 CALM      30.25R
RHINELANDER    CLEAR     31  27  85 CALM      30.25S
EAGLE RIVER    CLEAR     27  26  99 CALM      30.25S
LAND O LAKES   CLEAR     26  26  99 CALM      30.28R
PHILLIPS       CLOUDY    30  27  86 CALM      30.24R
TOMAHAWK       CLEAR     26  23  91 CALM      30.27R
MEDFORD        CLOUDY    35  29  76 E3        30.23R
MERRILL        CLEAR     28  27  96 CALM      30.26R
$$

WIZ029-030-035-036-043>047-291000-
CENTRAL WISCONSIN

CITY           SKY/WX    TMP DP  RH WIND       PRES   REMARKS
WAUSAU         CLOUDY    32  28  85 CALM      30.24R
MOSINEE        CLOUDY    36  30  80 NE5       30.25S WCI  32
MARSHFIELD     CLOUDY    35  28  75 NE6       30.23R WCI  30
STEVENS POINT  CLOUDY    28  27  98 CALM      30.25S
WAUPACA        CLEAR     32  30  93 CALM      30.26S
WAUTOMA        CLOUDY    31  29  92 CALM      30.25S
WISC RAPIDS    CLOUDY    33  30  88 CALM      30.25S
CAMP DOUGLAS   CLEAR     28  27  95 CALM      30.23R
$$

WIZ011>013-019>022-031-037>040-048>050-291000-
NORTHEAST WISCONSIN

CITY           SKY/WX    TMP DP  RH WIND       PRES   REMARKS
ANTIGO         CLEAR     31  28  88 NE6       30.26R WCI  25
SHAWANO        CLEAR     35  32  90 CALM      30.27S
OCONTO         CLEAR     30  29  96 NE5       30.27S WCI  25
STURGEON BAY   CLEAR     35  31  85 NE5       30.24S WCI  31
GREEN BAY      CLEAR     33  32  96 NE7       30.27R WCI  27
MANITOWOC      CLEAR     34  31  88 VRB3      30.27R
APPLETON       CLEAR     36  30  80 NE7       30.24R WCI  30
CLINTONVILLE   CLEAR     34  30  86 NE6       30.26S WCI  29
OSHKOSH        CLEAR     34  29  82 NE7       30.24S WCI  28
$$

WIZ032>034-041-042-053>061-291000-
SOUTHWEST WISCONSIN

CITY           SKY/WX    TMP DP  RH WIND       PRES   REMARKS
LA CROSSE      CLOUDY    43  34  70 SE5       30.21S
SPARTA         CLEAR     28  28  98 CALM      30.23S
VIROQUA        CLOUDY    38  32  78 CALM      30.20S
BOSCOBEL       CLEAR     37  35  92 NE3       30.22S
PRAIRIE DU CHI PTCLDY    39  36  88 CALM      30.20R
PLATTEVILLE    CLOUDY    38  38 100 E12       30.21R WCI  30
$$

WIZ056-057-062-063-064-067-068-291000-
SOUTH CENTRAL WISCONSIN

CITY           SKY/WX    TMP DP  RH WIND       PRES   REMARKS
REEDSBURG      CLEAR     33  33 100 CALM      30.22S
BARABOO/DELLS  CLEAR     33  32  96 CALM      30.22S
LONE ROCK      CLEAR     36  33  89 E7        30.21F WCI  30
MINERAL POINT  MOCLDY    37  37 100 E8        30.20F WCI  31
MADISON        PTCLDY    32  30  92 NE5       30.22F FOG     WCI  27
MIDDLETON      CLEAR     35  35 100 CALM      30.22F
WATERTOWN      FOG       32  32 100 CALM      30.23S VSB 1/4
MONROE         CLOUDY    36  34  93 NE5       30.19F FOG     WCI  32
JANESVILLE     FOG       34  34 100 E3        30.21F VSB 1/4
$$

WIZ051-052-058>065-066-070>072-291000-
SOUTHEAST WISCONSIN

CITY           SKY/WX    TMP DP  RH WIND       PRES   REMARKS
MILWAUKEE      FOG       32  31  96 CALM      30.25R VSB 1/8
WAUKESHA       FOG       30  30 100 CALM      30.25R VSB 1/4
MILWAUKEE/TIMM FOG       30  28  93 CALM      30.26R VSB 1/4
RACINE         FOG       32  29  88 CALM      30.26R VSB 1/4
KENOSHA        FOG       31  30  96 E3        30.23S VSB 1/4
FOND DU LAC    CLEAR     32  28  85 CALM      30.24S
SHEBOYGAN      CLEAR     32  30  92 NE8       30.24S WCI  25
WEST BEND      CLEAR     30  30 100 CALM      30.23S FOG
JUNEAU         CLEAR     32  31  97 CALM      30.24S FOG
$$

LSZ147-162-291000-
LAKE SUPERIOR

STATION/POSITION TIME  TEMP    WIND        PRES    WAVE
                       AIR SEA DIR/SP/G            HT/PER
                 (UTC) (F)     (DEG/KT/KT) (MB)    (FT/S)
DEVILS ISLAND    0900   35      50/ 17/ 19 1027.3R
PORT WING        0830   35      40/ 10/ 12 1025.7F
SAXON HARBOR     0840   27     200/  3/  4 1025.1S
$$

LMZ867-665-643>646-291000-
LAKE MICHIGAN

STATION/POSITION TIME  TEMP    WIND        PRES    WAVE
                       AIR SEA DIR/SP/G            HT/PER
                 (UTC) (F)     (DEG/KT/KT) (MB)    (FT/S)
CHAMBERS ISLAND  0840   33      30/  4/  6 1025.1S
NORTHPORT PIER   0840   35     350/  1/  5 1025.4S
SISTER BAY       0806   37      40/  6/  9   N/A
KEWAUNEE LAKESHO 0900   35      20/  3/  7 1024.3
SHEBOYGAN LAKESH 0900   36      10/ 13/ 14 1024.8R
PORT WASHINGTON  0830   34     330/  2/  3 1024.7S
MILWAUKEE LAKESH 0900   32      40/  1/  2   N/A
KENOSHA   LAKESH 0900   31      30/  4/  5 1024.0
$$

TC  - TEMPERATURE IN CELSIUS
VSB - VISIBILITY IN STATUTE MILES
WCI - WIND CHILL INDEX
HX  - HEAT INDEX




USA.gov is the U.S. government's official web portal to all federal, state and local government web resources and services.